1276992026193,0.851098
1276992086193,0.858298
1276992146193,0.845277
1276992206193,0.840281
1276992266193,0.840768
1276992326193,0.843741
1276992386193,0.844709
1276992446193,0.852260
1276992506193,0.845911
1276992566193,0.853913
1276992626193,0.836156
1276992686193,0.845647
1276992746193,0.850695
1276992806193,0.849464
1276992866193,0.851199
1276992926193,0.845375
1276992986193,0.843707
1276993046193,0.842334
1276993106193,0.841329
1276993166193,0.844109
1276993226193,0.854185
1276993286193,0.845169
1276993346193,0.840632
1276993406193,0.846680
1276993466193,0.844584
1276993526193,0.845706
1276993586193,0.843681
1276993646193,0.845117
1276993706193,0.835645
1276993766193,0.837825
1276993826193,0.838466
1276993886193,0.848239
1276993946193,0.840491
1276994006193,0.850065
1276994066193,0.847774
1276994126193,0.846407
1276994186193,0.842503
1276994246193,0.849071
1276994306193,0.844954
1276994366193,0.842393
1276994426193,0.832476
1276994486193,0.841205
1276994546193,0.843550
1276994606193,0.838116
1276994666193,0.838129
1276994726193,0.849469
1276994786193,0.840419
1276994846193,0.843413
1276994906193,0.846117
1276994966193,0.844200
1276995026193,0.839849
1276995086193,0.836477
1276995146193,0.849225
1276995206193,0.843865
1276995266193,0.849267
1276995326193,0.841049
1276995386193,0.837159
1276995446193,0.837731
1276995506193,0.837613
1276995566193,0.836057
1276995626203,0.834994
1276995686203,0.835162
1276995746203,0.848052
1276995806203,0.840936
1276995866203,0.837863
1276995926203,0.833508
1276995986203,0.841845
1276996046203,0.834406
1276996106203,0.834433
1276996166203,0.836322
1276996226203,0.841756
1276996286203,0.842152
1276996346203,0.835691
1276996406203,0.837301
1276996466203,0.838439
1276996526203,0.837555
1276996586203,0.845320
1276996646203,0.834341
1276996706203,0.845123
1276996766203,0.853185
1276996826203,0.845714
1276996886203,0.842512
1276996946203,0.833317
1276997006203,0.835926
1276997066203,0.840037
1276997126203,0.841863
1276997186203,0.852592
1276997246203,0.838807
1276997306203,0.839020
1276997366203,0.841290
1276997426203,0.843399
1276997486203,0.846220
1276997546203,0.846576
1276997606203,0.842038
1276997666203,0.851099
1276997726203,0.847515
1276997786203,0.844096
1276997846203,0.832642
1276997906203,0.848189
1276997966203,0.848508
1276998026203,0.839893
1276998086203,0.842315
1276998146203,0.845164
1276998206203,0.844156
1276998266203,0.845336
1276998326203,0.846782
1276998386203,0.843402
1276998446203,0.844028
1276998506203,0.848634
1276998566203,0.849165
1276998626203,0.842330
1276998686203,0.844857
1276998746203,0.845720
1276998806203,0.845854
1276998866203,0.853034
1276998926203,0.851903
1276998986203,0.850293
1276999046203,0.838904
1276999106203,0.854930
1276999166203,0.845853
1276999226213,0.857507
1276999286213,0.852977
1276999346213,0.855413
1276999406213,0.850323
1276999466213,0.853494
1276999526213,0.850839
1276999586213,0.851144
1276999646213,0.858646
1276999706213,0.857829
1276999766213,0.850757
1276999826213,0.861981
1276999886213,0.852677
1276999946213,0.854690
1277000006213,0.851498
1277000066213,0.851331
1277000126213,0.848177
1277000186213,0.857767
1277000246213,0.858214
1277000306213,0.862996
1277000366213,0.864912
1277000426213,0.856804
1277000486213,0.853531
1277000546213,0.859928
1277000606213,0.848804
1277000666213,0.851307
1277000726213,0.863160
1277000786213,0.855990
1277000846213,0.859484
1277000906213,0.854122
1277000966213,0.860747
1277001026213,0.852309
1277001086213,0.859342
1277001146213,0.879818
1277001206213,0.851987
1277001266213,0.851785
1277001326213,0.854102
1277001386213,0.867977
1277001446213,0.855234
1277001506213,0.853706
1277001566213,0.854705
1277001626213,0.853392
1277001686213,0.856453
1277001746213,0.848141
1277001806213,0.865123
1277001866213,0.857801
1277001926213,0.860800
1277001986213,0.854649
1277002046213,0.856392
1277002106213,0.854471
1277002166213,0.864607
1277002226213,0.853217
1277002286213,0.853590
1277002346213,0.858242
1277002406213,0.859777
1277002466213,0.855023
1277002526213,0.858171
1277002586213,0.855461
1277002646213,0.856065
1277002706213,0.854814
1277002766213,0.861279
1277002826222,0.856422
1277002886222,0.857062
1277002946222,0.856687
1277003006222,0.860285
1277003066222,0.860202
1277003126222,0.859211
1277003186222,0.848154
1277003246222,0.859091
1277003306222,0.852263
1277003366222,0.857535
1277003426222,0.853716
1277003486222,0.850650
1277003546222,0.851944
1277003606222,0.849372
1277003666222,0.852798
1277003726222,0.854346
1277003786222,0.849248
1277003846222,0.855988
1277003906222,0.852642
1277003966222,0.850333
1277004026222,0.855347
1277004086222,0.850832
1277004146222,0.855025
1277004206222,0.856236
1277004266222,0.858374
1277004326222,0.861580
1277004386222,0.854129
1277004446222,0.854781
1277004506222,0.854262
1277004566222,0.854045
1277004626222,0.861018
1277004686222,0.847809
1277004746222,0.850785
1277004806222,0.860134
1277004866222,0.853341
1277004926222,0.854717
1277004986222,0.852432
1277005046222,0.849431
1277005106222,0.854734
1277005166222,0.849043
1277005226222,0.856847
1277005286222,0.854126
1277005346222,0.848337
1277005406222,0.848674
1277005466222,0.851651
1277005526222,0.848065
1277005586222,0.855174
1277005646222,0.848319
1277005706222,0.844626
1277005766222,0.850366
1277005826222,0.848897
1277005886222,0.849722
1277005946222,0.847086
1277006006222,0.845753
1277006066222,0.842047
1277006126222,0.843261
1277006186222,0.847283
1277006246222,0.843350
1277006306222,0.851177
1277006366222,0.850584
1277006426231,0.840577
1277006486231,0.847274
1277006546231,0.837747
1277006606231,0.843616
1277006666231,0.845876
1277006726231,0.846711
1277006786231,0.846868
1277006846231,0.846867
1277006906231,0.849320
1277006966231,0.845103
1277007026231,0.842387
1277007086231,0.845777
1277007146231,0.844909
1277007206231,0.847158
1277007266231,0.849280
1277007326231,0.846076
1277007386231,0.838169
1277007446231,0.840858
1277007506231,0.845971
1277007566231,0.841309
1277007626231,0.841048
1277007686231,0.843963
1277007746231,0.838394
1277007806231,0.843831
1277007866231,0.841821
1277007926231,0.840956
1277007986231,0.842051
1277008046231,0.836644
1277008106231,0.832408
1277008166231,0.838864
1277008226231,0.842729
1277008286231,0.843600
1277008346231,0.838940
1277008406231,0.846845
1277008466231,0.837405
1277008526231,0.835834
1277008586231,0.836797
1277008646231,0.836090
1277008706231,0.836245
1277008766231,0.835896
1277008826231,0.836034
1277008886231,0.833738
1277008946231,0.842284
1277009006231,0.833423
1277009066231,0.838474
1277009126231,0.840994
1277009186231,0.838282
1277009246231,0.835273
1277009306231,0.843187
1277009366231,0.840578
1277009426231,0.841413
1277009486231,0.834033
1277009546231,0.837318
1277009606231,0.835135
1277009666231,0.832117
1277009726231,0.836368
1277009786231,0.828342
1277009846231,0.837802
1277009906231,0.842293
1277009966231,0.841090
1277010026240,0.837753
1277010086240,0.836612
1277010146240,0.837489
1277010206240,0.837074
1277010266240,0.842270
1277010326240,0.834884
1277010386240,0.838464
1277010446240,0.835974
1277010506240,0.834731
1277010566240,0.841106
1277010626240,0.837773
1277010686240,0.833872
1277010746240,0.837504
1277010806240,0.835250
1277010866240,0.830487
1277010926240,0.844298
1277010986240,0.840268
1277011046240,0.834400
1277011106240,0.845941
1277011166240,0.841979
1277011226240,0.843248
1277011286240,0.840339
1277011346240,0.834942
1277011406240,0.843069
1277011466240,0.832042
1277011526240,0.842222
1277011586240,0.840443
1277011646240,0.843001
1277011706240,0.840296
1277011766240,0.841410
1277011826240,0.843081
1277011886240,0.838361
1277011946240,0.845391
1277012006240,0.841570
1277012066240,0.844762
1277012126240,0.844399
1277012186240,0.841422
1277012246240,0.841713
1277012306240,0.849395
1277012366240,0.848612
1277012426240,0.841811
1277012486240,0.848068
1277012546240,0.845014
1277012606240,0.847132
1277012666240,0.847545
1277012726240,0.848430
1277012786240,0.850537
1277012846240,0.854262
1277012906240,0.851016
1277012966240,0.845828
1277013026240,0.849565
1277013086240,0.854060
1277013146240,0.849706
1277013206240,0.848472
1277013266240,0.844960
1277013326240,0.849787
1277013386240,0.844823
1277013446240,0.848951
1277013506240,0.855659
1277013566240,0.861125
1277013626248,0.849856
1277013686248,0.846729
1277013746248,0.844984
1277013806248,0.847844
1277013866248,0.846551
1277013926248,0.856917
1277013986248,0.849795
1277014046248,0.855975
1277014106248,0.855894
1277014166248,0.852327
1277014226248,0.863663
1277014286248,0.859318
1277014346248,0.853459
1277014406248,0.850314
1277014466248,0.854543
1277014526248,0.861024
1277014586248,0.848204
1277014646248,0.851164
1277014706248,0.852608
1277014766248,0.849470
1277014826248,0.854633
1277014886248,0.851502
1277014946248,0.852910
1277015006248,0.857166
1277015066248,0.855594
1277015126248,0.857926
1277015186248,0.856766
1277015246248,0.853958
1277015306248,0.859657
1277015366248,0.860497
1277015426248,0.851952
1277015486248,0.860121
1277015546248,0.854799
1277015606248,0.856923
1277015666248,0.852620
1277015726248,0.855996
1277015786248,0.863058
1277015846248,0.863585
1277015906248,0.857730
1277015966248,0.863752
1277016026248,0.860457
1277016086248,0.863108
1277016146248,0.860831
1277016206248,0.854244
1277016266248,0.860807
1277016326248,0.859766
1277016386248,0.865433
1277016446248,0.865664
1277016506248,0.856297
1277016566248,0.864818
1277016626248,0.857124
1277016686248,0.855802
1277016746248,0.867482
1277016806248,0.863338
1277016866248,0.866679
1277016926248,0.859369
1277016986248,0.864880
1277017046248,0.858200
1277017106248,0.863294
1277017166248,0.868865
1277017226257,0.856034
1277017286257,0.865553
1277017346257,0.878792
1277017406257,0.869503
1277017466257,0.869127
1277017526257,0.868340
1277017586257,0.875697
1277017646257,0.859996
1277017706257,0.870472
1277017766257,0.861122
1277017826257,0.858960
1277017886257,0.869154
1277017946257,0.864393
1277018006257,0.867717
1277018066257,0.861959
1277018126257,0.871040
1277018186257,0.862696
1277018246257,0.856692
1277018306257,0.864155
1277018366257,0.865509
1277018426257,0.862853
1277018486257,0.867585
1277018546257,0.871174
1277018606257,0.869213
1277018666257,0.869567
1277018726257,0.863038
1277018786257,0.868020
1277018846257,0.864186
1277018906257,0.869737
1277018966257,0.868509
1277019026257,0.870765
1277019086257,0.872211
1277019146257,0.866475
1277019206257,0.867295
1277019266257,0.899259
1277019326257,0.870174
1277019386257,0.875957
1277019446257,0.865871
1277019506257,0.871152
1277019566257,0.870090
1277019626257,0.867026
1277019686257,0.873125
1277019746257,0.870992
1277019806257,0.870391
1277019866257,0.869564
1277019926257,0.875604
1277019986257,0.870987
1277020046257,0.871404
1277020106257,0.872263
1277020166257,0.872174
1277020226257,0.874382
1277020286257,0.872999
1277020346257,0.868693
1277020406257,0.870780
1277020466257,0.878607
1277020526257,0.874178
1277020586257,0.870269
1277020646257,0.868352
1277020706257,0.878739
1277020766257,0.875247
1277020826265,0.869627
1277020886265,0.870969
1277020946265,0.874838
1277021006265,0.894747
1277021066265,0.896889
1277021126265,0.904059
1277021186265,0.880555
1277021246265,0.872537
1277021306265,0.873160
1277021366265,0.867066
1277021426265,0.874373
1277021486265,0.870322
1277021546265,0.870241
1277021606265,0.870855
1277021666265,0.865006
1277021726265,0.871147
1277021786265,0.873982
1277021846265,0.867070
1277021906265,0.873586
1277021966265,0.868894
1277022026265,0.865664
1277022086265,0.866835
1277022146265,0.868873
1277022206265,0.868069
1277022266265,0.866213
1277022326265,0.870332
1277022386265,0.868227
1277022446265,0.870310
1277022506265,0.872511
1277022566265,0.868297
1277022626265,0.863239
1277022686265,0.869039
1277022746265,0.867886
1277022806265,0.859048
1277022866265,0.875700
1277022926265,0.874722
1277022986265,0.874642
1277023046265,0.864964
1277023106265,0.869502
1277023166265,0.874951
1277023226265,0.873311
1277023286265,0.870411
1277023346265,0.866785
1277023406265,0.865099
1277023466265,0.869978
1277023526265,0.871692
1277023586265,0.868009
1277023646265,0.860510
1277023706265,0.865172
1277023766265,0.872521
1277023826265,0.867320
1277023886265,0.873703
1277023946265,0.872276
1277024006265,0.857991
1277024066265,0.866699
1277024126265,0.861540
1277024186265,0.867353
1277024246265,0.870819
1277024306265,0.868049
1277024366265,0.872348
1277024426274,0.870533
1277024486274,0.873666
1277024546274,0.866374
1277024606274,0.866554
1277024666274,0.868460
1277024726274,0.871986
1277024786274,0.873596
1277024846274,0.872950
1277024906274,0.861232
1277024966274,0.862526
1277025026274,0.869947
1277025086274,0.867176
1277025146274,0.874457
1277025206274,0.872458
1277025266274,0.869118
1277025326274,0.878589
1277025386274,0.861996
1277025446274,0.870694
1277025506274,0.863111
1277025566274,0.872748
1277025626274,0.861456
1277025686274,0.870160
1277025746274,0.871554
1277025806274,0.863911
1277025866274,0.863362
1277025926274,0.869089
1277025986274,0.872412
1277026046274,0.864297
1277026106274,0.859185
1277026166274,0.866361
1277026226274,0.865860
1277026286274,0.871136
1277026346274,0.865923
1277026406274,0.865641
1277026466274,0.861364
1277026526274,0.867271
1277026586274,0.863974
1277026646274,0.867070
1277026706274,0.865774
1277026766274,0.864096
1277026826274,0.866543
1277026886274,0.859854
1277026946274,0.866650
1277027006274,0.864131
1277027066274,0.865280
1277027126274,0.872200
1277027186274,0.862327
1277027246274,0.857236
1277027306274,0.857935
1277027366274,0.865152
1277027426274,0.865220
1277027486274,0.864514
1277027546274,0.869423
1277027606274,0.858055
1277027666274,0.858970
1277027726274,0.862067
1277027786274,0.855061
1277027846274,0.851449
1277027906274,0.859944
1277027966274,0.856646
1277028026283,0.863532
1277028086283,0.860190
1277028146283,0.861483
1277028206283,0.858023
1277028266283,0.862150
1277028326283,0.867626
1277028386283,0.856647
1277028446283,0.863142
1277028506283,0.862119
1277028566283,0.861715
1277028626283,0.863479
1277028686283,0.863021
1277028746283,0.867308
1277028806283,0.858910
1277028866283,0.856803
1277028926283,0.869277
1277028986283,0.853981
1277029046283,0.859819
1277029106283,0.853293
1277029166283,0.853772
1277029226283,0.856404
1277029286283,0.854258
1277029346283,0.856480
1277029406283,0.862207
1277029466283,0.861735
1277029526283,0.857506
1277029586283,0.860817
1277029646283,0.860532
1277029706283,0.857101
1277029766283,0.864425
1277029826283,0.857633
1277029886283,0.859621
1277029946283,0.856059
1277030006283,0.860286
1277030066283,0.858569
1277030126283,0.860016
1277030186283,0.854701
1277030246283,0.856841
1277030306283,0.848815
1277030366283,0.852974
1277030426283,0.865336
1277030486283,0.854861
1277030546283,0.854704
1277030606283,0.854463
1277030666283,0.867006
1277030726283,0.858674
1277030786283,0.854666
1277030846283,0.854787
1277030906283,0.854143
1277030966283,0.858064
1277031026283,0.856870
1277031086283,0.858390
1277031146283,0.863757
1277031206283,0.848478
1277031266283,0.864878
1277031326283,0.853022
1277031386283,0.858148
1277031446283,0.856663
1277031506283,0.851453
1277031566283,0.855477
1277031626291,0.856574
1277031686291,0.853601
1277031746291,0.973367
1277031806291,0.856523
1277031866291,0.850698
1277031926291,0.860389
1277031986291,0.862919
1277032046291,0.852854
1277032106291,0.854165
1277032166291,0.851196
1277032226291,0.855774
1277032286291,0.870708
1277032346291,0.853746
1277032406291,0.850561
1277032466291,0.863382
1277032526291,0.854195
1277032586291,0.862137
1277032646291,0.853037
1277032706291,0.860617
1277032766291,0.854474
1277032826291,0.858902
1277032886291,0.858800
1277032946291,0.857408
1277033006291,0.850314
1277033066291,0.856263
1277033126291,0.856144
1277033186291,0.857053
1277033246291,0.857226
1277033306291,0.852897
1277033366291,0.860759
1277033426291,0.855617
1277033486291,0.872770
1277033546291,0.861716
1277033606291,0.855595
1277033666291,0.860939
1277033726291,0.853724
1277033786291,0.855643
1277033846291,0.853798
1277033906291,0.859349
1277033966291,0.861940
1277034026291,0.850086
1277034086291,0.858711
1277034146291,0.864819
1277034206291,0.863230
1277034266291,0.860084
1277034326291,0.857237
1277034386291,0.890416
1277034446291,0.863743
1277034506291,0.860003
1277034566291,0.855165
1277034626291,0.862241
1277034686291,0.858151
1277034746291,0.863017
1277034806291,0.861836
1277034866291,0.860525
1277034926291,0.854470
1277034986291,0.864054
1277035046291,0.858569
1277035106291,0.856885
1277035166291,0.855219
1277036426302,0.867478
1277036486302,0.866519
1277036546302,0.860604
1277036606302,0.867541
1277036666302,0.865266
1277036726302,0.863669
1277036786302,0.870053
1277036846302,0.864992
1277036906302,0.865918
1277036966302,0.863353
1277037026302,0.866824
1277037086302,0.869322
1277037146302,0.862430
1277037206302,0.861797
1277037266302,0.859118
1277037326302,0.870671
1277037386302,0.863896
1277037446302,0.867218
1277037506302,0.857374
1277037566302,0.868038
1277037626302,0.867982
1277037686302,0.858611
1277037746302,0.867069
1277037806302,0.866684
1277037866302,0.861779
1277037926302,0.865781
1277037986302,0.868883
1277038046302,0.865039
1277038106302,0.863386
1277038166302,0.864298
1277038226302,0.849097
1277038286302,0.864263
1277038346302,0.864743
1277038406302,0.860363
1277038466302,0.875458
1277038526302,0.863382
1277038586302,0.868156
1277038646302,0.867749
1277038706302,0.869566
1277038766302,0.862052
1277038826308,0.871165
1277038886308,0.866247
1277038946308,0.862531
1277039006308,0.875867
1277039066308,0.877874
1277039126308,0.858601
1277039186308,0.872884
1277039246308,0.873704
1277039306308,0.872036
1277039366308,0.872198
1277039426308,0.870709
1277039486308,0.860745
1277039546308,0.867879
1277039606308,0.878342
1277039666308,0.870911
1277039726308,0.880917
1277039786308,0.864217
1277039846308,0.871048
1277039906308,0.873671
1277039966308,0.872865
1277040026308,0.877596
1277040086308,0.880879
1277040146308,0.874245
1277040206308,0.877400
1277040266308,0.876254
1277040326308,0.873986
1277040386308,0.868943
1277040446308,0.877450
1277040506308,0.872085
1277040566308,0.872945
1277040626308,0.874959
1277040686308,0.879953
1277040746308,0.866817
1277040806308,0.882518
1277040866308,0.865776
1277040926308,0.875179
1277040986308,0.881907
1277041046308,0.869046
1277041106308,0.878817
1277041166308,0.877073
1277041226308,0.881343
1277041286308,0.875732
1277041346308,0.871275
1277041406308,0.872797
1277041466308,0.878779
1277041526308,0.872583
1277041586308,0.876076
1277041646308,0.873932
1277041706308,0.873078
1277041766308,0.881967
1277041826308,0.874431
1277041886308,0.878067
1277041946308,0.881607
1277042006308,0.877022
1277042066308,0.872801
1277042126308,0.869107
1277042186308,0.870649
1277042246308,0.883578
1277042306308,0.876819
1277042366308,0.885949
1277042426317,0.874217
1277042486317,0.869695
1277042546317,0.879958
1277042606317,0.875819
1277042666317,0.871668
1277042726317,0.874420
1277042786317,0.878538
1277042846317,0.875916
1277042906317,0.885152
1277042966317,0.876360
1277043026317,0.878064
1277043086317,0.876107
1277043146317,0.877077
1277043206317,0.875727
1277043266317,0.872490
1277043326317,0.879333
1277043386317,0.879176
1277043446317,0.880823
1277043506317,0.869807
1277043566317,0.881330
1277043626317,0.880430
1277043686317,0.880989
1277043746317,0.877710
1277043806317,0.868759
1277043866317,0.878828
1277043926317,0.879435
1277043986317,0.885968
1277044046317,0.875259
1277044106317,0.874461
1277044166317,0.874549
1277044226317,0.873441
1277044286317,0.871649
1277044346317,0.874525
1277044406317,0.879618
1277044466317,0.883618
1277044526317,0.875141
1277044586317,0.883803
1277044646317,0.884100
1277044706317,0.880526
1277044766317,0.873814
1277044826317,0.886288
1277044886317,0.872237
1277044946317,0.869479
1277045006317,0.875705
1277045066317,0.879082
1277045126317,0.873516
1277045186317,0.880684
1277045246317,0.873540
1277045306317,0.877388
1277045366317,0.875005
1277045426317,0.876376
1277045486317,0.876047
1277045546317,0.876138
1277045606317,0.879190
1277045666317,0.879463
1277045726317,0.881107
1277045786317,0.871057
1277045846317,0.872713
1277045906317,0.873437
1277045966317,0.876965
1277046026325,0.875491
1277046086325,0.885264
1277046146325,0.873805
1277046206325,0.873415
1277046266325,0.891156
1277046326325,0.871800
1277046386325,0.865827
1277046446325,0.873310
1277046506325,0.879804
1277046566325,0.869725
1277046626325,0.865944
1277046686325,0.874087
1277046746325,0.881526
1277046806325,0.873060
1277046866325,0.876188
1277046926325,0.879387
1277046986325,0.870623
1277047046325,0.877068
1277047106325,0.875528
1277047166325,0.876922
1277047226325,0.873328
1277047286325,0.881040
1277047346325,0.867628
1277047406325,0.873516
1277047466325,0.877356
1277047526325,0.873865
1277047586325,0.878568
1277047646325,0.878461
1277047706325,0.868554
1277047766325,0.876984
1277047826325,0.880935
1277047886325,0.875071
1277047946325,0.880199
1277048006325,0.867951
1277048066325,0.879767
1277048126325,0.865818
1277048186325,0.876337
1277048246325,0.880818
1277048306325,0.870152
1277048366325,0.870899
1277048426325,0.884013
1277048486325,0.878914
1277048546325,0.872227
1277048606325,0.881903
1277048666325,0.878602
1277048726325,0.877108
1277048786325,0.873888
1277048846325,0.872346
1277048906325,0.883027
1277048966325,0.883620
1277049026325,0.878505
1277049086325,0.883324
1277049146325,0.876000
1277049206325,0.879929
1277049266325,0.879842
1277049326325,0.878327
1277049386325,0.884248
1277049446325,0.885445
1277049506325,0.877347
1277049566325,0.876821
1277049626334,0.886894
1277049686334,0.869984
1277049746334,0.883336
1277049806334,0.885158
1277049866334,0.880565
1277049926334,0.882489
1277049986334,0.884221
1277050046334,0.887579
1277050106334,0.882142
1277050166334,0.880684
1277050226334,0.885126
1277050286334,0.887415
1277050346334,0.882521
1277050406334,0.885331
1277050466334,0.883809
1277050526334,0.883938
1277050586334,0.887448
1277050646334,0.884216
1277050706334,0.878822
1277050766334,0.881220
1277050826334,0.890497
1277050886334,0.891081
1277050946334,0.885832
1277051006334,0.885765
1277051066334,0.887108
1277051126334,0.883092
1277051186334,0.946884
1277051246334,0.891837
1277051306334,0.896131
1277051366334,0.885616
1277051426334,0.884201
1277051486334,0.890783
1277051546334,0.895399
1277051606334,0.885689
1277051666334,0.889073
1277051726334,0.897722
1277051786334,0.897245
1277051846334,0.892068
1277051906334,0.903146
1277051966334,0.889406
1277052026334,0.895616
1277052086334,0.889195
1277052146334,0.889222
1277052206334,0.889912
1277052266334,0.900877
1277052326334,0.895565
1277052386334,0.897253
1277052446334,0.885723
1277052506334,0.895060
1277052566334,0.902872
1277052626334,0.898253
1277052686334,0.896653
1277052746334,0.899812
1277052806334,0.895897
1277052866334,0.890929
1277052926334,0.898110
1277052986334,0.895834
1277053046334,0.900467
1277053106334,0.905409
1277053166334,0.887362
1277053226343,0.889136
1277053286343,0.891588
1277053346343,0.901387
1277053406343,0.901915
1277053466343,0.904066
1277053526343,0.892369
1277053586343,0.899182
1277053646343,0.894865
1277053706343,0.887673
1277053766343,0.890540
1277053826343,0.895494
1277053886343,0.899534
1277053946343,0.903756
1277054006343,0.895286
1277054066343,0.901377
1277054126343,1.04956
1277054186343,0.898211
1277054246343,0.898127
1277054306343,0.904475
1277054366343,0.903303
1277054426343,0.904560
1277054486343,0.903837
1277054546343,0.914042
1277054606343,0.895566
1277054666343,0.896864
1277054726343,0.901678
1277054786343,0.958424
1277054846343,0.902297
1277054906343,0.900084
1277054966343,0.903194
1277055026343,0.895126
1277055086343,0.903005
1277055146343,0.907882
1277055206343,0.907079
1277055266343,0.919053
1277055326343,0.908949
1277055386343,0.903710
1277055446343,0.909830
1277055506343,0.907551
1277055566343,0.905078
1277055626343,0.902168
1277055686343,0.909342
1277055746343,0.901792